• In France
  • List of Countries
  • For 7 days
  • Water Temperature
  • Satellite Maps
  • Weather Map
  • Weather Widgets
  • user-avatar
    Login

    Hourly Weather Zirani

    Today, 17 October, Wednesday

    Time Temperature Precipitation Wind Pressure Humidity
    00:00 +14°C° 0 mm 2 mps 720 mmHg 78%
    01:00 +14°C° 0 mm 2 mps 720 mmHg 76%
    02:00 +14°C° 0 mm 2 mps 720 mmHg 75%
    03:00 +14°C° 0 mm 2 mps 720 mmHg 73%
    04:00 +14°C° 0 mm 2 mps 719 mmHg 72%
    05:00 +13°C° 0 mm 2 mps 719 mmHg 70%
    06:00 +13°C° 0 mm 2 mps 719 mmHg 69%
    07:00 +15°C° 0 mm 2 mps 719 mmHg 61%
    08:00 +18°C° 0 mm 2 mps 720 mmHg 53%
    09:00 +20°C° 0 mm 2 mps 720 mmHg 46%
    10:00 +21°C° 0 mm 2 mps 720 mmHg 44%
    11:00 +22°C° 0 mm 3 mps 720 mmHg 43%
    12:00 +22°C° 0 mm 3 mps 720 mmHg 42%
    13:00 +22°C° 0 mm 3 mps 719 mmHg 46%
    14:00 +22°C° 0 mm 3 mps 719 mmHg 50%
    15:00 +22°C° 0 mm 3 mps 719 mmHg 53%
    16:00 +20°C° 0 mm 2 mps 718 mmHg 63%
    17:00 +18°C° 0 mm 2 mps 718 mmHg 73%
    18:00 +16°C° 0 mm 1 mps 718 mmHg 83%
    19:00 +16°C° 0 mm 1 mps 718 mmHg 82%
    20:00 +16°C° 0 mm 1 mps 718 mmHg 80%
    21:00 +15°C° 0 mm 1 mps 718 mmHg 78%
    22:00 +15°C° 0 mm 1 mps 718 mmHg 75%
    23:00 +15°C° 0 mm 1 mps 717 mmHg 72%

    Tomorrow, 18 October, Thursday

    Time Temperature Precipitation Wind Pressure Humidity
    00:00 +15°C° 0 mm 1 mps 717 mmHg 68%
    01:00 +14°C° 0 mm 1 mps 717 mmHg 66%
    02:00 +14°C° 0 mm 1 mps 717 mmHg 63%
    03:00 +14°C° 0 mm 1 mps 717 mmHg 60%
    04:00 +14°C° 0 mm 1 mps 717 mmHg 57%
    05:00 +14°C° 0 mm 1 mps 717 mmHg 54%
    06:00 +13°C° 0 mm 1 mps 717 mmHg 51%
    07:00 +15°C° 0 mm 1 mps 717 mmHg 46%
    08:00 +19°C° 0 mm 1 mps 717 mmHg 41%
    09:00 +21°C° 0 mm 1 mps 718 mmHg 36%
    10:00 +22°C° 0 mm 1 mps 718 mmHg 36%
    11:00 +23°C° 0 mm 2 mps 718 mmHg 35%
    12:00 +23°C° 0 mm 2 mps 718 mmHg 35%
    13:00 +23°C° 0 mm 2 mps 717 mmHg 39%
    14:00 +23°C° 0 mm 2 mps 717 mmHg 43%
    15:00 +23°C° 0 mm 2 mps 717 mmHg 46%
    16:00 +20°C° 0 mm 2 mps 717 mmHg 58%
    17:00 +18°C° 0 mm 2 mps 717 mmHg 69%
    18:00 +16°C° 0 mm 1 mps 717 mmHg 80%
    19:00 +16°C° 0 mm 1 mps 717 mmHg 77%
    20:00 +15°C° 0 mm 1 mps 717 mmHg 74%
    21:00 +15°C° 0 mm 1 mps 717 mmHg 71%
    22:00 +15°C° 0 mm 2 mps 717 mmHg 66%
    23:00 +15°C° 0 mm 2 mps 717 mmHg 62%

    Day after tomorrow, 19 October, Friday

    Time Temperature Precipitation Wind Pressure Humidity
    00:00 +15°C° 0 mm 2 mps 717 mmHg 57%
    01:00 +14°C° 0 mm 2 mps 717 mmHg 54%
    02:00 +14°C° 0 mm 2 mps 717 mmHg 52%
    03:00 +14°C° 0 mm 2 mps 717 mmHg 49%
    04:00 +14°C° 0 mm 2 mps 716 mmHg 47%
    05:00 +14°C° 0 mm 2 mps 716 mmHg 45%
    06:00 +14°C° 0 mm 2 mps 716 mmHg 43%
    07:00 +16°C° 0 mm 2 mps 717 mmHg 39%
    08:00 +18°C° 0 mm 2 mps 717 mmHg 34%
    09:00 +21°C° 0 mm 2 mps 717 mmHg 29%
    10:00 +23°C° 0 mm 2 mps 717 mmHg 28%
    11:00 +24°C° 0 mm 2 mps 717 mmHg 27%
    12:00 +25°C° 0 mm 3 mps 717 mmHg 26%
    13:00 +25°C° 0 mm 3 mps 716 mmHg 31%
    14:00 +24°C° 0 mm 3 mps 716 mmHg 35%
    15:00 +24°C° 0 mm 3 mps 716 mmHg 39%
    16:00 +21°C° 0 mm 2 mps 716 mmHg 48%
    17:00 +19°C° 0 mm 2 mps 716 mmHg 58%
    18:00 +17°C° 0 mm 2 mps 715 mmHg 68%
    19:00 +17°C° 0 mm 2 mps 715 mmHg 66%
    20:00 +16°C° 0 mm 2 mps 715 mmHg 64%
    21:00 +16°C° 0 mm 2 mps 715 mmHg 62%
    22:00 +16°C° 0 mm 2 mps 715 mmHg 61%
    23:00 +16°C° 0 mm 2 mps 715 mmHg 61%

    20 October, Saturday

    Time Temperature Precipitation Wind Pressure Humidity
    00:00 +16°C° 0 mm 2 mps 715 mmHg 60%
    01:00 +16°C° 0 mm 2 mps 714 mmHg 59%
    02:00 +15°C° 0 mm 2 mps 714 mmHg 59%
    03:00 +15°C° 0 mm 2 mps 714 mmHg 58%
    04:00 +15°C° 0 mm 2 mps 714 mmHg 55%
    05:00 +15°C° 0 mm 2 mps 714 mmHg 52%
    06:00 +15°C° 0 mm 2 mps 714 mmHg 49%
    07:00 +17°C° 0 mm 2 mps 714 mmHg 43%
    08:00 +20°C° 0 mm 2 mps 714 mmHg 36%
    09:00 +23°C° 0 mm 1 mps 715 mmHg 30%
    10:00 +24°C° 0 mm 2 mps 714 mmHg 29%
    11:00 +26°C° 0 mm 2 mps 714 mmHg 27%
    12:00 +27°C° 0 mm 2 mps 714 mmHg 26%
    13:00 +26°C° 0 mm 2 mps 714 mmHg 29%
    14:00 +26°C° 0 mm 2 mps 714 mmHg 32%
    15:00 +26°C° 0 mm 2 mps 713 mmHg 35%
    16:00 +24°C° 0 mm 2 mps 713 mmHg 42%
    17:00 +21°C° 0 mm 1 mps 713 mmHg 50%
    18:00 +19°C° 0 mm 1 mps 713 mmHg 58%
    19:00 +19°C° 0 mm 1 mps 713 mmHg 55%
    20:00 +19°C° 0 mm 1 mps 713 mmHg 53%
    21:00 +19°C° 0 mm 1 mps 714 mmHg 51%
    22:00 +19°C° 0 mm 1 mps 713 mmHg 50%
    23:00 +18°C° 0 mm 1 mps 713 mmHg 49%

    21 October, Sunday

    Time Temperature Precipitation Wind Pressure Humidity
    00:00 +18°C° 0 mm 1 mps 713 mmHg 48%
    01:00 +18°C° 0 mm 1 mps 713 mmHg 49%
    02:00 +18°C° 0 mm 1 mps 713 mmHg 49%
    03:00 +16°C° 0 mm 1 mps 713 mmHg 49%
    04:00 +16°C° 0 mm 1 mps 712 mmHg 49%
    05:00 +16°C° 0 mm 1 mps 712 mmHg 49%
    06:00 +16°C° 0 mm 1 mps 712 mmHg 48%
    07:00 +19°C° 0 mm 1 mps 713 mmHg 45%
    08:00 +21°C° 0 mm 1 mps 713 mmHg 41%
    09:00 +23°C° 0 mm 1 mps 713 mmHg 38%
    10:00 +24°C° 0 mm 1 mps 713 mmHg 37%
    11:00 +25°C° 0 mm 1 mps 713 mmHg 37%
    12:00 +25°C° 0 mm 2 mps 712 mmHg 36%
    13:00 +25°C° 0 mm 2 mps 712 mmHg 39%
    14:00 +25°C° 0 mm 2 mps 712 mmHg 41%
    15:00 +24°C° 0 mm 2 mps 711 mmHg 44%
    16:00 +23°C° 0 mm 1 mps 711 mmHg 51%
    17:00 +21°C° 0 mm 1 mps 711 mmHg 59%
    18:00 +18°C° 0 mm 0 mps 712 mmHg 66%
    19:00 +17°C° 0 mm 0 mps 712 mmHg 67%
    20:00 +19°C° 0 mm 1 mps 712 mmHg 67%
    21:00 +18°C° 0 mm 1 mps 712 mmHg 68%
    22:00 +18°C° 0 mm 1 mps 711 mmHg 69%
    23:00 +18°C° 0 mm 1 mps 711 mmHg 69%

    22 October, Monday

    Time Temperature Precipitation Wind Pressure Humidity
    00:00 +16°C° 0 mm 1 mps 711 mmHg 70%
    01:00 +16°C° 0 mm 1 mps 711 mmHg 70%
    02:00 +16°C° 0 mm 1 mps 711 mmHg 70%
    03:00 +16°C° 0 mm 1 mps 711 mmHg 70%
    04:00 +16°C° 0 mm 1 mps 711 mmHg 71%
    05:00 +16°C° 0 mm 1 mps 711 mmHg 71%
    06:00 +16°C° 0 mm 1 mps 711 mmHg 72%
    07:00 +18°C° 0 mm 1 mps 712 mmHg 66%
    08:00 +20°C° 0 mm 1 mps 712 mmHg 61%
    09:00 +21°C° 0 mm 1 mps 712 mmHg 55%
    10:00 +22°C° 0 mm 1 mps 712 mmHg 53%
    11:00 +23°C° 0 mm 2 mps 712 mmHg 51%
    12:00 +24°C° 0 mm 2 mps 712 mmHg 48%
    13:00 +24°C° 0 mm 2 mps 712 mmHg 51%
    14:00 +23°C° 0 mm 2 mps 712 mmHg 53%
    15:00 +23°C° 0 mm 2 mps 712 mmHg 56%
    16:00 +21°C° 0.1 mm 2 mps 712 mmHg 64%
    17:00 +20°C° 0.1 mm 1 mps 713 mmHg 72%
    18:00 +19°C° 0.1 mm 1 mps 713 mmHg 80%
    19:00 +18°C° 0.1 mm 1 mps 713 mmHg 81%
    20:00 +18°C° 0.1 mm 1 mps 713 mmHg 82%
    21:00 +18°C° 0.1 mm 1 mps 713 mmHg 83%
    22:00 +18°C° 0.1 mm 1 mps 713 mmHg 81%
    23:00 +16°C° 0.1 mm 1 mps 713 mmHg 80%
    Show more